Dewpoint
41 41 42 42 44 45 45 46 47 48 49 50 51 51 51 51 51 51 47 47 42 32 35 36 36 35 33 31 29 28 25 25 23 19 19 17 16 14 12 8 7 7 7 6 9 6 2 3 0 -0 0 -4 -8 -8
41 41 41 41 40 41 42 43 44 44 45 46 47 48 49 50 50 50 46 47 46 40 36 37 37 36 36 35 35 31 30 25 26 22 21 21 17 14 11 8 8 8 12 8 11 9 4 6 2 -0 1 2 2 1
40 41 41 41 41 40 40 40 42 42 42 43 44 45 45 46 47 49 47 46 44 38 36 36 34 36 37 37 38 33 31 32 28 29 25 23 17 19 11 11 10 11 9 12 13 7 3 5 3 3 4 4 3 3
37 37 38 39 40 41 41 41 40 41 41 42 43 42 42 44 45 46 44 46 43 34 30 30 30 29 26 29 32 33 34 31 31 29 24 21 18 23 17 15 15 12 12 11 9 3 4 6 5 5 3 3 3 3
37 38 39 35 37 38 39 40 40 40 40 41 42 42 42 42 43 44 44 45 46 38 31 28 22 23 23 26 28 29 29 28 26 23 22 19 18 17 10 11 9 9 10 9 9 6 8 4 7 6 2 1 0 -0
34 34 34 36 38 38 38 38 39 39 40 40 40 41 40 42 43 41 36 40 45 44 33 27 21 18 21 22 22 21 23 21 22 21 16 11 12 13 9 8 0 -1 2 1 4 2 2 1 0 -0 -1 -0 -0 -5
35 35 35 35 36 37 38 38 38 38 39 39 39 40 40 40 40 37 35 36 40 41 31 24 18 15 18 19 17 18 19 16 17 14 10 9 8 10 8 5 -2 -1 -1 -1 0 0 -2 -2 -4 -3 -3 -4 0 -7
35 35 35 35 36 38 38 37 38 38 38 39 39 39 39 39 39 35 35 39 38 34 32 26 11 12 16 13 9 15 13 13 9 8 9 5 7 6 2 -3 -2 -2 -3 -6 -8 -9 -9 -10 -11 -11 -10 -10 -10 -11
34 35 34 34 33 32 33 35 36 37 38 38 38 39 37 34 31 31 37 33 29 31 25 20 6 8 14 11 12 12 13 2 6 -2 -0 2 -4 -4 -4 -3 -3 -4 -5 -10 -12 -14 -14 -15 -19 -20 -20 -23 -23 -24
34 34 34 34 34 34 33 33 34 35 37 38 37 33 30 26 35 35 31 28 27 17 14 10 8 5 7 8 7 7 5 -1 -7 -14 -10 -12 -12 -14 -13 -13 -6 -9 -13 -16 -19 -20 -20 -20 -23 -27 -26 -29 -28 -28
35 34 34 34 34 34 33 33 33 35 37 35 32 28 29 35 28 24 19 19 16 13 5 4 3 2 10 6 3 6 2 -0 -5 -11 -14 -24 -18 -12 -22 -23 -28 -27 -26 -31 -29 -30 -30 -26 -26 -29 -28 -31 -33 -32
34 34 34 34 34 34 33 33 33 34 33 34 32 29 29 25 20 14 10 5 3 1 -3 -4 1 4 5 10 4 4 -1 -0 -9 -8 -16 -22 -12 -17 -27 -29 -31 -35 -32 -29 -32 -27 -33 -31 -34 -34 -34 -33 -32 -29
33 33 33 33 33 33 33 33 34 36 36 31 26 22 20 18 12 10 3 -5 -4 -4 -5 -2 -3 0 6 7 3 2 -4 -7 -4 -15 -13 -11 -13 -22 -29 -33 -32 -40 -37 -32 -32 -34 -34 -34 -37 -34 -30 -32 -34 -34
33 32 32 32 32 33 33 35 35 36 32 24 18 13 7 8 10 -3 5 4 -0 -0 1 3 2 3 4 1 2 -5 -7 -6 -14 -18 -15 -14 -18 -26 -29 -37 -28 -29 -35 -32 -32 -34 -32 -30 -32 -31 -30 -34 -35 -28
31 31 32 33 34 34 36 38 35 29 26 21 20 9 -3 -5 -7 -8 -6 -2 2 6 5 3 3 3 -1 -3 -3 -6 -10 -12 -15 -16 -15 -17 -23 -28 -31 -35 -33 -32 -36 -36 -37 -36 -35 -35 -33 -30 -29 -34 -33 -28
35 36 34 36 35 36 32 26 23 21 13 6 1 0 0 -4 -5 2 3 3 7 8 9 8 1 -1 -5 -3 -7 -7 -12 -17 -14 -14 -17 -26 -34 -36 -35 -34 -31 -36 -35 -36 -36 -36 -33 -35 -32 -31 -33 -31 -30 -27
37 35 36 33 31 29 28 18 14 6 1 -6 -9 0 -3 -7 -7 -3 1 3 8 8 3 5 1 -6 -4 -10 -13 -11 -13 -12 -16 -19 -20 -27 -25 -28 -34 -33 -31 -29 -32 -34 -36 -35 -35 -36 -41 -36 -29 -28 -30 -18
34 35 36 33 25 20 16 13 7 2 -6 -6 -6 -2 1 2 1 2 5 5 8 7 6 0 -3 -8 -10 -14 -13 -12 -17 -20 -17 -16 -18 -25 -34 -33 -25 -24 -23 -24 -25 -29 -30 -33 -35 -34 -28 -24 -29 -28 -21 -13
31 33 34 31 22 15 9 6 8 -2 -2 -1 0 2 3 3 4 5 5 6 4 4 1 -2 -9 -11 -9 -10 -12 -18 -20 -14 -17 -20 -25 -32 -31 -27 -26 -27 -24 -28 -29 -29 -24 -22 -23 -25 -25 -23 -22 -18 -16 -16
28 26 23 20 14 3 3 2 7 1 -3 0 3 1 1 1 3 4 1 0 2 -2 -8 -12 -12 -10 -13 -16 -15 -15 -15 -16 -15 -20 -20 -21 -30 -27 -20 -20 -18 -23 -25 -27 -24 -10 -18 -16 -14 -16 -18 -18 -14 -17
21 20 17 7 -0 0 -3 -5 -3 -1 -1 -0 3 3 1 3 0 -3 -5 -2 -9 -16 -14 -14 -16 -19 -24 -24 -23 -17 -20 -15 -20 -18 -19 -20 -23 -17 -17 -17 -18 -17 -17 -16 -16 -15 -10 -16 -16 -13 -12 -12 -12 -10
11 16 -0 4 -5 -8 -5 1 -1 3 3 2 2 2 -4 -6 -9 -12 -8 -16 -19 -13 -15 -19 -21 -21 -18 -20 -22 -24 -23 -22 -22 -15 -5 -4 -18 -16 -15 -14 -14 -16 -16 -15 -15 -15 -14 -13 -12 -14 -13 -13 -8 -12
13 8 -1 -2 -5 -5 -5 4 -1 1 -4 -3 -2 -5 -10 -15 -16 -12 -21 -23 -18 -21 -22 -22 -25 -28 -21 -24 -21 -19 -18 -15 -14 -12 -10 -12 -13 -12 -12 -13 -13 -15 -15 -14 -13 -13 -14 -9 -9 -6 -10 -11 -13 -13
13 -0 -3 -3 -1 -4 1 0 2 -0 -3 -9 -17 -20 -21 -24 -19 -25 -26 -21 -16 -17 -16 -22 -16 -14 -13 -14 -11 -10 -10 -12 -12 -13 -12 -12 -12 -14 -14 -14 -16 -15 -13 -13 -13 -12 -13 -13 -8 -9 -12 -14 -15 -15
-2 -4 -1 -5 -2 -6 -10 -13 -15 -13 -20 -26 -26 -24 -22 -25 -25 -29 -24 -15 -20 -17 -16 -15 -14 -12 -11 -11 -10 -10 -10 -11 -12 -12 -12 -12 -11 -13 -14 -14 -16 -15 -12 -13 -14 -13 -14 -13 -14 -14 -14 -17 -18 -23
-9 -7 -11 -15 -12 -12 -15 -17 -20 -22 -25 -27 -26 -27 -31 -27 -29 -29 -17 -17 -16 -17 -16 -12 -11 -11 -11 -9 -10 -10 -9 -9 -10 -11 -11 -11 -12 -12 -13 -14 -14 -14 -13 -12 -13 -14 -14 -14 -14 -17 -17 -16 -5 -9
-19 -20 -11 -7 -11 -9 -13 -14 -15 -18 -27 -25 -23 -23 -28 -30 -30 -15 -13 -16 -14 -13 -10 -8 -8 -8 -8 -7 -6 -6 -8 -8 -9 -9 -10 -9 -9 -10 -9 -12 -13 -13 -11 -11 -11 -13 -14 -14 -14 -13 -14 -16 -18 -19
-18 -19 -21 -19 -21 -17 -22 -21 -23 -24 -21 -17 -17 -28 -31 -22 -14 -7 -10 -11 -11 -11 -10 -9 -8 -6 -5 -5 -4 -6 -8 -9 -11 -10 -10 -10 -10 -8 -8 -8 -8 -4 -9 -9 -10 -11 -11 -12 -12 -13 -13 -14 -14 -12
-17 -13 -18 -23 -25 -21 -23 -21 -20 -16 -14 -19 -19 -17 -16 -11 -10 -11 -8 -10 -13 -12 -9 -8 -8 -9 -8 -8 -7 -6 -9 -10 -10 -10 -10 -9 -8 -7 -8 -8 -8 -7 -4 -5 2 -2 -10 -10 -10 -10 -10 -9 -9 -10
-18 -16 -18 -24 -21 -19 -17 -18 -21 -23 -18 -16 -15 -14 -13 -11 -12 -14 -12 -12 -11 -10 -11 -13 -12 -14 -9 -9 -6 -7 -8 -8 -7 -7 -8 -6 -4 -4 -7 -8 -9 -9 -8 -7 -6 -6 4 3 -1 -7 -8 -11 -12 -13
-14 -18 -20 -19 -19 -19 -21 -23 -25 -16 -22 -26 -26 -21 -16 -15 -13 -14 -15 -14 -14 -17 -16 -13 -13 -16 -12 -10 -10 -8 -6 -5 -7 -7 -7 -5 -4 -4 -4 -5 -5 -6 -8 -9 -10 -10 -10 -8 -7 -9 -10 -11 -14 -6
-16 -24 -20 -20 -16 -22 -26 -27 -28 -27 -28 -25 -22 -30 -21 -19 -17 -12 -14 -15 -10 -12 -5 -8 -11 -9 -7 -6 -6 -4 3 1 -2 -4 -5 -4 -4 -2 -2 -3 -4 -6 -7 -8 -8 -9 -9 -10 -9 -10 -10 -11 -11 -11
-24 -28 -28 -23 -18 -18 -19 -21 -22 -21 -22 -19 -19 -22 -25 -20 -20 -12 -15 -18 -14 -14 -13 -12 -11 -9 -8 -7 -6 -4 2 -1 0 8 10 11 11 6 -3 -3 -4 -5 -7 -7 -8 -8 -9 -9 -10 -10 -10 -10 -10 -10
Lifted_Index
12 12 12 11 11 10 10 9 8 8 7 7 6 6 5 5 5 5 5 6 6 7 7 8 8 8 9 8 8 8 9 9 8 7 6 6 5 6 6 5 5 4 4 3 4 4 5 7 9 8 9 10 11 11
12 12 12 12 11 11 11 10 9 9 8 8 7 7 6 6 5 5 5 5 6 6 7 7 8 8 8 9 8 8 8 8 7 7 6 5 5 5 5 4 5 5 4 4 4 5 6 8 9 9 10 11 11 12
12 12 12 12 12 11 11 11 10 10 10 9 9 8 7 7 6 5 5 5 5 5 5 6 6 7 8 8 8 8 7 7 7 6 5 4 4 4 4 4 4 5 5 5 5 6 7 8 9 10 11 12 13 13
13 12 12 12 12 12 11 11 11 11 10 10 9 9 8 7 7 6 6 5 4 3 4 5 5 6 7 8 8 7 7 6 6 5 4 4 4 5 5 4 5 6 6 6 6 7 8 9 9 11 12 13 14 15
13 13 13 13 12 12 12 11 11 11 10 10 9 9 8 7 6 6 5 4 3 2 2 3 4 5 6 7 7 7 7 6 5 5 4 4 5 6 5 5 6 7 7 7 7 8 9 9 11 12 13 14 15 15
13 12 12 12 11 11 11 10 10 10 10 9 9 8 7 6 5 4 4 3 2 1 1 1 2 3 4 5 6 7 7 6 6 5 4 5 7 7 6 5 7 8 9 9 9 10 10 11 12 13 14 15 16 16
11 11 11 10 10 9 9 9 8 8 8 8 7 7 6 5 4 4 3 3 2 1 1 1 1 2 3 4 5 6 7 7 6 6 5 6 7 7 6 6 8 10 10 11 12 12 13 13 14 15 16 17 17 17
8 8 8 8 8 7 7 7 6 6 6 6 6 6 5 5 4 3 3 3 2 1 1 1 1 2 3 3 4 7 7 7 7 6 6 7 7 7 6 7 9 11 12 13 13 14 15 15 16 16 17 17 17 17
6 6 6 6 6 6 5 5 5 5 5 4 4 4 5 4 4 3 3 3 2 2 1 1 1 2 3 3 4 6 6 6 6 6 7 7 7 7 8 9 11 12 13 14 14 15 15 16 16 17 17 17 17 17
4 4 4 4 5 5 5 5 4 4 4 4 3 4 4 4 3 3 2 2 2 2 2 1 1 2 3 3 4 5 6 5 4 5 7 6 6 8 11 12 13 14 15 15 15 15 16 16 16 17 17 17 17 17
3 4 4 4 4 4 4 4 4 4 3 3 3 3 3 3 3 2 2 2 2 2 1 1 2 3 4 4 4 5 5 4 4 5 6 5 6 10 13 14 15 16 16 16 16 17 17 17 17 17 17 17 17 17
2 2 3 2 2 3 3 4 4 3 3 3 3 3 3 3 2 2 2 2 2 1 1 1 2 4 6 7 6 6 5 5 5 6 5 5 8 11 14 15 16 17 17 17 17 18 18 18 18 18 17 17 17 17
1 1 1 1 1 1 2 3 2 2 1 1 2 2 2 2 1 1 1 2 2 2 2 2 3 5 7 8 7 6 5 5 6 6 5 7 10 13 14 15 16 16 17 17 17 18 18 18 18 18 18 18 18 18
1 1 1 1 0 1 1 1 1 1 0 0 1 1 1 1 1 1 1 2 2 3 3 3 4 5 7 7 7 6 6 6 5 5 6 9 11 13 14 14 15 16 16 17 17 17 18 18 18 18 18 19 19 19
0 1 1 0 0 0 0 0 0 0 0 0 0 0 0 1 1 1 2 2 4 5 5 5 5 6 6 6 6 6 5 5 5 6 8 10 12 12 13 14 14 15 16 16 16 17 17 17 17 18 19 20 20 19
0 0 0 0 0 0 0 1 1 1 1 1 1 1 1 1 2 2 2 4 6 7 7 6 6 5 6 6 5 5 5 5 6 8 10 11 11 12 12 13 14 15 15 16 16 16 17 17 18 18 19 20 20 19
-0 -0 0 0 1 1 1 2 2 2 2 2 2 2 2 3 3 3 4 6 8 8 7 7 6 5 6 5 5 6 6 7 8 9 10 11 11 11 12 13 13 14 15 15 16 16 17 17 18 18 19 19 19 19
0 0 0 1 1 2 3 3 3 3 3 4 5 5 5 5 6 7 8 9 10 9 8 7 7 6 6 6 6 7 8 8 9 9 10 11 11 12 12 13 13 14 14 15 15 16 16 17 17 18 19 19 19 18
1 1 1 2 2 3 3 5 6 5 5 6 8 8 8 8 9 10 11 11 11 10 9 8 7 7 6 7 7 8 8 8 9 9 10 11 11 12 12 12 13 13 14 14 14 15 16 17 17 18 19 19 18 18
2 2 2 3 3 3 4 6 8 8 7 9 10 10 9 10 11 11 11 11 11 10 9 8 8 7 8 8 8 9 9 9 9 9 9 10 11 12 12 12 13 13 13 13 14 14 15 16 17 18 19 19 18 18
3 3 3 4 4 5 6 7 9 9 9 9 10 9 9 9 10 10 10 10 9 8 8 8 8 8 9 9 10 10 10 10 9 9 9 10 10 11 11 12 12 12 12 12 13 13 14 15 17 18 19 19 19 19
4 4 5 5 5 6 7 8 9 9 9 9 9 9 8 8 9 9 9 8 8 8 8 8 8 9 9 9 10 10 10 10 10 10 10 10 10 10 11 11 12 11 11 12 12 13 14 15 16 17 18 18 19 19
6 6 6 6 6 6 7 8 8 8 7 7 7 7 7 7 8 8 8 7 8 8 8 9 9 9 9 9 9 9 10 10 9 9 10 10 10 10 11 11 11 11 11 12 12 13 13 15 16 16 17 17 17 18
7 7 6 6 6 6 7 7 7 7 6 6 6 6 6 7 7 7 6 6 7 8 8 8 8 8 8 8 8 9 9 9 9 9 9 9 9 10 10 11 11 12 12 12 12 12 13 14 14 15 15 16 16 16
7 7 6 6 6 6 6 6 6 6 6 6 5 5 6 6 5 5 5 6 6 7 7 7 7 7 7 7 7 8 9 9 8 8 9 9 9 9 9 10 10 11 12 12 12 12 12 13 13 14 14 14 15 15
6 6 7 7 7 6 6 5 5 5 5 5 5 5 5 5 4 4 5 5 6 6 6 6 6 6 6 6 7 7 8 9 9 8 9 9 9 9 9 9 9 10 12 12 11 11 11 12 12 13 13 14 14 14
6 6 7 7 7 6 6 5 5 5 4 4 4 5 4 4 4 4 5 6 6 6 6 6 6 6 6 7 7 8 8 9 9 9 9 10 10 10 9 9 9 11 12 12 12 12 12 12 12 12 13 13 14 14
6 6 6 6 6 6 5 5 5 5 5 5 5 5 4 4 4 5 6 6 6 6 6 7 7 7 7 7 8 8 9 9 8 8 8 9 9 10 10 10 10 11 12 12 12 12 12 12 12 12 12 13 13 14
6 6 5 5 5 6 6 6 6 6 6 6 6 5 5 5 6 6 7 7 7 6 6 6 7 7 7 8 8 8 9 9 8 7 6 7 8 9 10 10 10 11 11 11 12 12 12 13 13 13 13 12 13 13
6 6 5 5 6 6 6 7 7 7 7 7 7 6 6 7 7 8 8 8 7 7 6 6 7 7 7 7 8 8 9 9 8 7 7 7 8 9 9 10 10 11 11 11 11 12 12 13 13 13 12 12 12 12
6 5 5 5 5 6 6 7 7 7 7 7 7 7 7 7 8 9 9 9 8 7 7 7 7 7 7 8 8 8 9 9 9 9 9 9 9 10 10 10 10 11 11 11 11 11 11 12 12 12 12 11 11 11
5 5 5 5 5 6 6 6 7 7 7 7 8 8 8 8 9 10 10 10 9 8 8 8 7 8 9 9 10 10 10 10 10 10 10 11 11 11 11 11 11 11 11 11 11 11 11 11 11 11 11 11 12 12
5 5 5 5 5 5 6 6 6 6 7 7 8 8 8 8 9 10 11 11 10 9 9 9 9 9 10 10 11 11 11 11 11 11 11 11 12 12 11 11 11 11 11 11 12 12 12 12 12 12 12 12 12 12